Find Starlink 38308

NORAD ID: 100386 Int'l Des: 2026-190 Owner: SPXS Country: US Constellation: starlink operational

Current View

Loading 3D Globe...

About Starlink 38308

Starlink 38308 (NORAD 100386) is a starlink constellation satellite launched Aug 19, 2026 by SPXS of US. with a mass of 575.00 kg.

Upcoming Passes

Passes for default location (London). Set your location on the main map for personalized predictions.

Altitude History

Loading altitude history...

Two-Line Element Set

1 A0386U 26190R 26255.75683188 .00142014 00000-0 93536-3 0 9992
2 A0386 97.2828 109.6849 0001369 99.2699 260.8721 15.75236592 5157
Epoch: Sep 12, 2026 • Age: 11 hours

Current Status

Altitude 348.8 km
Apogee / Perigee N/A
Velocity 7.70 km/s
Sub-Earth Point -10.59°S, 148.03°W
Launch Date Aug 19, 2026
Age 25 days
Type internet

Technical Details

Classification Payload
Mass 575.00 kg
Dry Mass 530.00 kg
Total Mass 575.00 kg
Length 0.30 m
Diameter 4.10 m
Span 29.00 m
Shape Box + pan
Manufacturer SPXS
Bus Type Starlink V2MO
Phase Status In Orbit
Owner/State SPXS/US

Most Searched